Meteo Giornale » Osservazioni meteo Stati Uniti (USA) » Latrobe-Westmorland
ore: 23:55 - Osservazioni Meteo Latrobe-Westmorland
Lat. 40° 17' N Lon. 79° 24' W Alt. 361 metri s.l.m.
23 °C
Sereno
Temp. 24 Ore
19 °C
28 °C
Sud
11.1 Km/h
Dew point 21 °C
Umidità 88 %
Visibilità 10 Km
Il sole sorge alle ore 06:45
Il sole tramonta alle ore 19:49
| Data e Ora | Cielo e Fenomeni | T °C | DP °C | Um. % | Pres. hPa | Vis. km | Vento km/h | |
|---|---|---|---|---|---|---|---|---|
| Ieri h: 23:55 | Sereno | 23 | 21 | 88 | 1019 | 10 | S 11.1 | |
| Ieri h: 23:35 | Sereno | 23 | 21 | 88 | 1019 | 10 | S/SO 11.1 | |
| Ieri h: 23:15 | Sereno | 24 | 21 | 83 | 1019 | 10 | S/SO 11.1 | |
| Ieri h: 22:55 | Sereno | 24 | 21 | 83 | 1019 | 10 | S 11.1 | |
| Ieri h: 22:35 | Sereno | 25 | 21 | 78 | 1019 | 10 | S 13 | |
| Ieri h: 22:15 | Sereno | 25 | 22 | 83 | 1019 | 10 | S 13 | |
| Ieri h: 21:47 | Sereno | 25 | 22 | 83 | 1019 | 10 | N 0 | |
| Ieri h: 20:50 | Sereno | 24 | 22 | 88 | 1019 | 10 | N 0 | |
| Ieri h: 19:50 | Molto Nuvoloso | 26 | 23 | 83 | 1019 | 10 | N 0 | |
| Ieri h: 18:50 | Molto Nuvoloso | 26 | 23 | 83 | 1019 | 10 | SO 9.3 | |
| Ieri h: 17:47 | Molto Nuvoloso | 28 | 23 | 74 | 1019 | 10 | S/SO 16.7 | |
| Ieri h: 16:47 | Molto Nuvoloso | 27 | 23 | 78 | 1019 | 10 | S 14.8 | |
| Ieri h: 15:47 | Coperto | 27 | 22 | 74 | 1020 | 10 | SO 13 | |
| Ieri h: 14:52 | Coperto | 28 | 21 | 65 | 1020 | 10 | O/SO 14.8 | |
| Ieri h: 13:47 | Nuvoloso | 27 | 22 | 74 | 1020 | 10 | SO 24 | |
| Ieri h: 12:47 | Molto Nuvoloso | 25 | 22 | 83 | 1021 | 10 | S/SO 20.3 | |
| Ieri h: 11:47 | Nuvoloso | 25 | 21 | 78 | 1021 | 10 | SO 20.3 | |
| Ieri h: 10:47 | Foschia | 24 | 21 | 83 | 1021 | 14 | S 13 | |
| Ieri h: 09:47 | Coperto | 22 | 21 | 94 | 1021 | 10 | N 0 | |
| Ieri h: 08:47 | Coperto | 21 | 20 | 94 | 1021 | 10 | N 0 | |
| Ieri h: 07:47 | Coperto | 20 | 20 | 100 | 1021 | 10 | N 0 | |
| Ieri h: 06:47 | Molto Nuvoloso | 19 | 19 | 100 | 1020 | 10 | N 0 | |
| Ieri h: 06:35 | Poco Nuvoloso | 19 | 19 | 100 | 1020 | 14 | N 0 | |
| Ieri h: 06:15 | Nuvoloso | 20 | 19 | 93 | 1020 | 10 | N 0 | |
| Ieri h: 05:55 | Molto Nuvoloso | 20 | 19 | 93 | 1020 | 10 | N 0 | |
| Ieri h: 05:35 | Molto Nuvoloso | 20 | 19 | 93 | 1020 | 10 | N 0 | |
| Ieri h: 05:15 | Nuvoloso | 20 | 19 | 93 | 1020 | 10 | N 0 | |
| Ieri h: 04:55 | Molto Nuvoloso | 20 | 19 | 93 | 1020 | 10 | N 0 | |
| Ieri h: 04:35 | Poco Nuvoloso | 20 | 19 | 93 | 1020 | 10 | N 0 | |
| Ieri h: 04:15 | Nuvoloso | 20 | 19 | 93 | 1020 | 10 | N 0 | |
| Ieri h: 03:55 | Sereno | 20 | 19 | 93 | 1020 | 10 | N 0 | |
| Ieri h: 03:35 | Nuvoloso | 20 | 19 | 93 | 1020 | 10 | NO 7.4 | |
| Ieri h: 03:15 | Molto Nuvoloso | 20 | 19 | 93 | 1020 | 10 | N 0 | |
| Ieri h: 02:55 | Nuvoloso | 20 | 20 | 100 | 1020 | 10 | N 0 | |
| Ieri h: 02:35 | Nuvoloso | 20 | 19 | 93 | 1020 | 10 | N 0 | |
| Ieri h: 02:15 | Nuvoloso | 20 | 19 | 93 | 1020 | 10 | N 0 | |
| Ieri h: 01:55 | Sereno | 20 | 19 | 93 | 1021 | 10 | N 0 | |
| Ieri h: 01:35 | Poco Nuvoloso | 21 | 20 | 94 | 1021 | 10 | N 0 | |
| Ieri h: 01:15 | Molto Nuvoloso | 21 | 20 | 94 | 1021 | 10 | N 0 | |
| Ieri h: 00:55 | Nuvoloso | 21 | 20 | 94 | 1021 | 10 | N 0 | |
| Ieri h: 00:35 | Sereno | 21 | 20 | 94 | 1021 | 10 | N 0 | |



